Location: Oberkirch
(48.5323°N, 8.0787°E)
Time: 16:58:57
(UTC+00:00)

SL-24 R/B - RUBIN 2 - Pass Details

Date: 21 February 2026
Orbit: 603 x 984 km, 64.6° (Epoch: 8 March)

Event Time Altitude Azimuth Distance (km) Brightness Sun altitude
Exits shadow 04:58:07 - 328° (NNW) 2,347 6.2 -15.0°
Reaches altitude 10° 05:00:46 10° 358° (N) 1,973 6.1 -14.6°
Maximum altitude 05:01:10 10° 4° (N) 1,963 6.2 -14.5°
Drops below altitude 10° 05:01:35 10° 9° (N) 1,967 6.3 -14.5°
Sets 05:06:20 0° 56° (NE) 2,863 8.0 -13.7°
